Flag for China Weather past 2 weeks in Guiyang, Guizhou, China

Now
64 °F

Clear.


Feels Like: 64 °F
Forecast: 59 / 76 °F
Wind: 1 mph from North

Location: Guiyang Airport

Current Time: Oct 2, 2014 at 8:55:04 PM

Latest Report: Oct 2, 2014 at 8:00 PM


Visibility: 10 mi

Pressure: 30.04 "Hg

Humidity: 94%

Dew point: 63 °F

Location of GuiyangLocation

Historic Weather in Guiyang — Graph

°F

Guiyang temperature yesterday

Maximum temperature yesterday: 79 °F (at 2:00 PM)
Minimum temperature yesterday: 64 °F (at 12:00 AM)
Average temperature yesterday: 70 °F

Past Weeks' High & Low Weather Summary

 TemperatureHumidityPressure
High84 °F (Sep 28, 2:00 PM)100% (Sep 17, 7:00 PM)30.18 "Hg (Sep 17, 7:00 PM)
Low48 °F (Sep 22, 7:00 AM)28% (Sep 21, 4:00 PM)29.92 "Hg (Sep 22, 4:00 PM)
Average68 °F83%30.04 "Hg
* Reported Sep 17 7:00 PM — Oct 2 7:00 PM, Guiyang, Weather by CustomWeather, © 2014

Note: Actual official high and low records may vary slightly from our data, if they occured in-between our weather recording intervals... More about our weather records

Advertising

Guiyang weather history for previous 24 hours

 ConditionsComfort  
Time TempWeatherWind HumidityBarometerVisibility
7:00 PM
Oct 2
70 °FPassing clouds.1 mph78%30.01 "HgN/A
6:00 PM73 °FPassing clouds.1 mph74%30.01 "HgN/A
5:00 PM75 °FPartly sunny.3 mph69%30.01 "HgN/A
4:00 PM75 °FPartly sunny.3 mph69%30.01 "HgN/A
3:00 PM75 °FPartly sunny.3 mph65%30.04 "HgN/A
2:00 PM73 °FBroken clouds.3 mph69%30.07 "HgN/A
1:00 PM73 °FBroken clouds.6 mph69%30.09 "HgN/A
12:00 PM72 °FBroken clouds.6 mph73%30.12 "HgN/A
11:00 AM73 °FBroken clouds.6 mph74%30.15 "HgN/A
10:00 AM70 °FBroken clouds.3 mph83%30.15 "HgN/A
9:00 AM68 °FMore clouds than sun.3 mph88%30.15 "Hg5 mi
8:00 AM66 °FBroken clouds.3 mph94%30.12 "Hg4 mi
7:00 AM64 °FMostly cloudy.6 mph100%30.12 "Hg4 mi
6:00 AM64 °FMostly cloudy.1 mph100%30.09 "Hg4 mi
5:00 AM64 °FMostly cloudy.1 mph100%30.09 "Hg4 mi
4:00 AM64 °FLight rain. Fog.1 mph100%30.09 "Hg3 mi
3:00 AM64 °FMostly cloudy.1 mph100%30.09 "Hg4 mi
2:00 AM64 °FRain. Fog.1 mph100%30.09 "Hg3 mi
1:00 AM64 °FLight rain. Fog.1 mph100%30.09 "Hg3 mi
12:00 AM64 °FLight rain. Fog.1 mph100%30.09 "Hg3 mi
11:00 PM
Oct 1
64 °FSprinkles. Mostly cloudy.No wind100%30.09 "Hg4 mi
10:00 PM66 °FThunderstorms. Mostly cloudy.3 mph94%30.09 "Hg5 mi
9:00 PM64 °FThunderstorms. Partly cloudy.3 mph94%30.09 "Hg5 mi
8:00 PM70 °FThundershowers. Passing clouds.1 mph88%30.04 "HgN/A
Weather by CustomWeather, © 2014

See weather overviewHow to use our weather pages